Location: Charleville
(26.4021°S, 146.2454°E)
Time: 16:03:51
(UTC+10:00)

ISS - Visible Passes

Search period start: 26 February 2024 00:00
Search period end: 07 March 2024 00:00
Orbit: 414 x 422 km, 51.6° (Epoch: 26 February)

Date Brightness Start Highest point End Pass type
(mag) Time Alt. Az. Time Alt. Az. Time Alt. Az.
27 Feb -0.7 20:42:51 10° S 20:42:52 10° S 20:42:52 10° S visible
29 Feb -1.4 20:42:45 10° SSW 20:44:03 21° SSW 20:44:03 21° SSW visible
01 Mar -2.4 19:55:10 10° SSW 19:58:02 25° SE 19:58:14 25° SE visible
02 Mar -1.6 19:07:58 10° S 19:09:55 14° SE 19:11:52 10° ESE visible
02 Mar -1.5 20:43:39 10° WSW 20:45:26 24° W 20:45:26 24° W visible
03 Mar -3.8 19:55:24 10° SW 19:58:48 79° NW 19:59:47 43° NNE visible
04 Mar -3.3 19:07:27 10° SSW 19:10:43 46° SE 19:13:58 10° ENE visible
05 Mar -1.2 19:56:44 10° W 19:59:08 18° NW 20:01:30 10° N visible
06 Mar -2.3 19:07:55 10° WSW 19:11:06 37° NW 19:14:12 10° NNE visible
